Wetterdaten: aktuell Dienstag, 16.10.2018 07:39
Datum Zeit Temp. A. Feuchte A. Luftdruck Regen Wind Richtung Richtung Taupunkt Windchill Windben
16.10.2018 07:39 9,4 C 83 % 1017,4 hPa 0,0 l/m 3,2 km/h (1 Bft) W-NW 285 6,7 C 9,4 C 4,8 km/h (1 Bft)
16.10.2018 07:38 9,4 C 83 % 1017,3 hPa 0,0 l/m 4,7 km/h (1 Bft) W-NW 285 6,7 C 9,2 C 6,4 km/h (2 Bft)
16.10.2018 07:37 9,4 C 83 % 1017,3 hPa 0,0 l/m 4,8 km/h (1 Bft) W-NW 285 6,7 C 9,1 C 4,8 km/h (1 Bft)
16.10.2018 07:36 9,4 C 83 % 1017,3 hPa 0,0 l/m 3,0 km/h (1 Bft) W-NW 285 6,7 C 9,4 C 4,8 km/h (1 Bft)
16.10.2018 07:35 9,4 C 83 % 1017,4 hPa 0,0 l/m 2,6 km/h (1 Bft) W-NW 285 6,7 C 9,4 C 3,2 km/h (1 Bft)
16.10.2018 07:34 9,4 C 83 % 1017,3 hPa 0,0 l/m 1,3 km/h (1 Bft) W-NW 285 6,7 C 9,4 C 1,6 km/h (1 Bft)
16.10.2018 07:33 9,4 C 83 % 1017,3 hPa 0,0 l/m 1,5 km/h (1 Bft) W-NW 285 6,7 C 9,4 C 3,2 km/h (1 Bft)
16.10.2018 07:32 9,3 C 83 % 1017,3 hPa 0,0 l/m 0,1 km/h (0 Bft) W-NW 285 6,6 C 9,3 C 1,6 km/h (1 Bft)
16.10.2018 07:31 9,4 C 83 % 1017,3 hPa 0,0 l/m 0,0 km/h (0 Bft) W-NW 285 6,7 C 9,4 C 0,0 km/h (0 Bft)
16.10.2018 07:30 9,3 C 83 % 1017,3 hPa 0,0 l/m 0,0 km/h (0 Bft) W-NW 285 6,6 C 9,3 C 0,0 km/h (0 Bft)
16.10.2018 07:29 9,3 C 83 % 1017,3 hPa 0,0 l/m 0,1 km/h (0 Bft) W-NW 285 6,6 C 9,3 C 1,6 km/h (1 Bft)
16.10.2018 07:28 9,3 C 83 % 1017,3 hPa 0,0 l/m 0,8 km/h (0 Bft) W-NW 285 6,6 C 9,3 C 1,6 km/h (1 Bft)
16.10.2018 07:27 9,3 C 83 % 1017,3 hPa 0,0 l/m 1,5 km/h (1 Bft) W-NW 285 6,6 C 9,3 C 3,2 km/h (1 Bft)
16.10.2018 07:26 9,3 C 83 % 1017,3 hPa 0,0 l/m 2,2 km/h (1 Bft) W-NW 285 6,6 C 9,3 C 3,2 km/h (1 Bft)
16.10.2018 07:25 9,3 C 83 % 1017,3 hPa 0,0 l/m 1,5 km/h (1 Bft) W-NW 285 6,6 C 9,3 C 3,2 km/h (1 Bft)
16.10.2018 07:24 9,3 C 83 % 1017,2 hPa 0,0 l/m 1,5 km/h (1 Bft) W-NW 285 6,6 C 9,3 C 3,2 km/h (1 Bft)
16.10.2018 07:23 9,3 C 83 % 1017,2 hPa 0,0 l/m 2,0 km/h (1 Bft) W-NW 285 6,6 C 9,3 C 3,2 km/h (1 Bft)
16.10.2018 07:22 9,2 C 83 % 1017,3 hPa 0,0 l/m 3,1 km/h (1 Bft) W-NW 285 6,5 C 9,2 C 4,8 km/h (1 Bft)
16.10.2018 07:21 9,2 C 83 % 1017,2 hPa 0,0 l/m 4,2 km/h (1 Bft) W-NW 285 6,5 C 9,2 C 4,8 km/h (1 Bft)
16.10.2018 07:20 9,2 C 83 % 1017,2 hPa 0,0 l/m 4,2 km/h (1 Bft) W-NW 285 6,5 C 9,2 C 4,8 km/h (1 Bft)
16.10.2018 07:19 9,2 C 83 % 1017,1 hPa 0,0 l/m 4,0 km/h (1 Bft) W-NW 285 6,5 C 9,2 C 4,8 km/h (1 Bft)
16.10.2018 07:18 9,2 C 82 % 1017,2 hPa 0,0 l/m 4,0 km/h (1 Bft) W-NW 285 6,3 C 9,2 C 4,8 km/h (1 Bft)
16.10.2018 07:17 9,2 C 82 % 1017,2 hPa 0,0 l/m 3,2 km/h (1 Bft) W-NW 285 6,3 C 9,2 C 4,8 km/h (1 Bft)
16.10.2018 07:16 9,2 C 82 % 1017,2 hPa 0,0 l/m 2,5 km/h (1 Bft) W-NW 285 6,3 C 9,2 C 3,2 km/h (1 Bft)
16.10.2018 07:15 9,2 C 82 % 1017,2 hPa 0,0 l/m 3,2 km/h (1 Bft) W-NW 285 6,3 C 9,2 C 4,8 km/h (1 Bft)
16.10.2018 07:14 9,2 C 82 % 1017,2 hPa 0,0 l/m 2,4 km/h (1 Bft) W-NW 285 6,3 C 9,2 C 3,2 km/h (1 Bft)
16.10.2018 07:13 9,2 C 82 % 1017,2 hPa 0,0 l/m 3,2 km/h (1 Bft) W-NW 285 6,3 C 9,2 C 4,8 km/h (1 Bft)
16.10.2018 07:12 9,2 C 82 % 1017,2 hPa 0,0 l/m 2,4 km/h (1 Bft) W-NW 285 6,3 C 9,2 C 3,2 km/h (1 Bft)
16.10.2018 07:11 9,3 C 82 % 1017,2 hPa 0,0 l/m 2,1 km/h (1 Bft) W-NW 285 6,4 C 9,3 C 3,2 km/h (1 Bft)
16.10.2018 07:10 9,3 C 82 % 1017,2 hPa 0,0 l/m 2,4 km/h (1 Bft) W-NW 285 6,4 C 9,3 C 3,2 km/h (1 Bft)
16.10.2018 07:09 9,3 C 82 % 1017,1 hPa 0,0 l/m 1,7 km/h (1 Bft) W-NW 285 6,4 C 9,3 C 3,2 km/h (1 Bft)
16.10.2018 07:08 9,3 C 82 % 1017,1 hPa 0,0 l/m 2,1 km/h (1 Bft) W-NW 285 6,4 C 9,3 C 3,2 km/h (1 Bft)
16.10.2018 07:06 9,3 C 82 % 1017,2 hPa 0,0 l/m 1,9 km/h (1 Bft) W-NW 285 6,4 C 9,3 C 3,2 km/h (1 Bft)
16.10.2018 07:05 9,3 C 82 % 1017,1 hPa 0,0 l/m 0,1 km/h (0 Bft) W-NW 285 6,4 C 9,3 C 1,6 km/h (1 Bft)
16.10.2018 07:04 9,3 C 82 % 1017,2 hPa 0,0 l/m 1,5 km/h (1 Bft) W-NW 285 6,4 C 9,3 C 3,2 km/h (1 Bft)
16.10.2018 07:03 9,3 C 82 % 1017,2 hPa 0,0 l/m 1,6 km/h (1 Bft) W-NW 285 6,4 C 9,3 C 3,2 km/h (1 Bft)
16.10.2018 07:02 9,3 C 82 % 1017,2 hPa 0,0 l/m 0,0 km/h (0 Bft) W-NW 285 6,4 C 9,3 C 3,2 km/h (1 Bft)
16.10.2018 07:00 9,4 C 83 % 1017,1 hPa 0,0 l/m 1,9 km/h (1 Bft) W-NW 285 6,7 C 9,4 C 3,2 km/h (1 Bft)
16.10.2018 06:59 9,3 C 83 % 1017,1 hPa 0,0 l/m 0,3 km/h (0 Bft) W-NW 285 6,6 C 9,3 C 1,6 km/h (1 Bft)
16.10.2018 06:58 9,3 C 83 % 1017,1 hPa 0,0 l/m 0,9 km/h (0 Bft) W-NW 285 6,6 C 9,3 C 1,6 km/h (1 Bft)
16.10.2018 06:57 9,3 C 83 % 1017,1 hPa 0,0 l/m 1,3 km/h (1 Bft) W-NW 285 6,6 C 9,3 C 3,2 km/h (1 Bft)
16.10.2018 06:56 9,3 C 83 % 1017,1 hPa 0,0 l/m 1,1 km/h (1 Bft) W-NW 285 6,6 C 9,3 C 3,2 km/h (1 Bft)
16.10.2018 06:55 9,3 C 83 % 1017,1 hPa 0,0 l/m 1,3 km/h (1 Bft) W-NW 285 6,6 C 9,3 C 3,2 km/h (1 Bft)
16.10.2018 06:53 9,3 C 83 % 1017,1 hPa 0,0 l/m 2,2 km/h (1 Bft) W-NW 285 6,6 C 9,3 C 3,2 km/h (1 Bft)
16.10.2018 06:52 9,3 C 83 % 1017,1 hPa 0,0 l/m 2,8 km/h (1 Bft) W-NW 285 6,6 C 9,3 C 4,8 km/h (1 Bft)
16.10.2018 06:51 9,3 C 83 % 1017,1 hPa 0,0 l/m 2,9 km/h (1 Bft) W-NW 285 6,6 C 9,3 C 4,8 km/h (1 Bft)
16.10.2018 06:50 9,3 C 83 % 1017,1 hPa 0,0 l/m 2,7 km/h (1 Bft) W-NW 285 6,6 C 9,3 C 3,2 km/h (1 Bft)
16.10.2018 06:49 9,3 C 83 % 1017,1 hPa 0,0 l/m 1,2 km/h (1 Bft) W-NW 285 6,6 C 9,3 C 3,2 km/h (1 Bft)
16.10.2018 06:48 9,3 C 83 % 1017,1 hPa 0,0 l/m 0,2 km/h (0 Bft) W-NW 285 6,6 C 9,3 C 1,6 km/h (1 Bft)
16.10.2018 06:46 9,3 C 83 % 1017,1 hPa 0,0 l/m 0,1 km/h (0 Bft) W-NW 285 6,6 C 9,3 C 1,6 km/h (1 Bft)
16.10.2018 06:45 9,3 C 83 % 1017,1 hPa 0,0 l/m 0,1 km/h (0 Bft) W-NW 285 6,6 C 9,3 C 1,6 km/h (1 Bft)
16.10.2018 06:44 9,3 C 82 % 1017,1 hPa 0,0 l/m 1,5 km/h (1 Bft) W-NW 285 6,4 C 9,3 C 3,2 km/h (1 Bft)
16.10.2018 06:43 9,3 C 82 % 1017,1 hPa 0,0 l/m 1,7 km/h (1 Bft) W-NW 285 6,4 C 9,3 C 3,2 km/h (1 Bft)
16.10.2018 06:42 9,3 C 82 % 1017,1 hPa 0,0 l/m 0,0 km/h (0 Bft) W-NW 285 6,4 C 9,3 C 0,0 km/h (0 Bft)
16.10.2018 06:41 9,3 C 82 % 1017,0 hPa 0,0 l/m 0,0 km/h (0 Bft) W-NW 285 6,4 C 9,3 C 0,0 km/h (0 Bft)
16.10.2018 06:40 9,3 C 82 % 1017,0 hPa 0,0 l/m 0,0 km/h (0 Bft) W-NW 285 6,4 C 9,3 C 0,0 km/h (0 Bft)
16.10.2018 06:39 9,3 C 82 % 1017,0 hPa 0,0 l/m 0,0 km/h (0 Bft) W-NW 285 6,4 C 9,3 C 0,0 km/h (0 Bft)
16.10.2018 06:38 9,3 C 82 % 1017,0 hPa 0,0 l/m 0,0 km/h (0 Bft) W-NW 285 6,4 C 9,3 C 0,0 km/h (0 Bft)
16.10.2018 06:37 9,3 C 83 % 1017,0 hPa 0,0 l/m 0,2 km/h (0 Bft) W-NW 285 6,6 C 9,3 C 1,6 km/h (1 Bft)
16.10.2018 06:36 9,3 C 83 % 1017,0 hPa 0,0 l/m 0,3 km/h (0 Bft) W-NW 285 6,6 C 9,3 C 1,6 km/h (1 Bft)
16.10.2018 06:35 9,3 C 82 % 1017,0 hPa 0,0 l/m 0,1 km/h (0 Bft) W-NW 285 6,4 C 9,3 C 1,6 km/h (1 Bft)
16.10.2018 06:34 9,3 C 83 % 1017,0 hPa 0,0 l/m 1,3 km/h (1 Bft) W-NW 285 6,6 C 9,3 C 3,2 km/h (1 Bft)
16.10.2018 06:33 9,3 C 83 % 1016,9 hPa 0,0 l/m 0,7 km/h (0 Bft) W-NW 285 6,6 C 9,3 C 1,6 km/h (1 Bft)
16.10.2018 06:32 9,3 C 83 % 1016,9 hPa 0,0 l/m 0,2 km/h (0 Bft) W-NW 285 6,6 C 9,3 C 1,6 km/h (1 Bft)
16.10.2018 06:31 9,3 C 83 % 1016,9 hPa 0,0 l/m 0,2 km/h (0 Bft) W-NW 285 6,6 C 9,3 C 1,6 km/h (1 Bft)
16.10.2018 06:30 9,3 C 83 % 1016,9 hPa 0,0 l/m 0,0 km/h (0 Bft) W-NW 285 6,6 C 9,3 C 0,0 km/h (0 Bft)
16.10.2018 06:28 9,3 C 83 % 1016,9 hPa 0,0 l/m 0,0 km/h (0 Bft) W-NW 285 6,6 C 9,3 C 0,0 km/h (0 Bft)
16.10.2018 06:27 9,3 C 83 % 1016,8 hPa 0,0 l/m 0,0 km/h (0 Bft) W-NW 285 6,6 C 9,3 C 0,0 km/h (0 Bft)
16.10.2018 06:26 9,3 C 83 % 1016,8 hPa 0,0 l/m 0,1 km/h (0 Bft) W-NW 285 6,6 C 9,3 C 1,6 km/h (1 Bft)
16.10.2018 06:24 9,2 C 83 % 1016,9 hPa 0,0 l/m 2,3 km/h (1 Bft) W-NW 285 6,5 C 9,2 C 3,2 km/h (1 Bft)
16.10.2018 06:23 9,2 C 83 % 1016,9 hPa 0,0 l/m 3,1 km/h (1 Bft) W-NW 285 6,5 C 9,2 C 4,8 km/h (1 Bft)
16.10.2018 06:21 9,2 C 83 % 1016,8 hPa 0,0 l/m 0,1 km/h (0 Bft) W-NW 285 6,5 C 9,2 C 1,6 km/h (1 Bft)
16.10.2018 06:20 9,2 C 83 % 1016,8 hPa 0,0 l/m 0,5 km/h (0 Bft) W-NW 285 6,5 C 9,2 C 1,6 km/h (1 Bft)
16.10.2018 06:19 9,2 C 83 % 1016,8 hPa 0,0 l/m 0,0 km/h (0 Bft) W-NW 285 6,5 C 9,2 C 0,0 km/h (0 Bft)
16.10.2018 06:18 9,2 C 84 % 1016,8 hPa 0,0 l/m 0,1 km/h (0 Bft) W-NW 285 6,6 C 9,2 C 1,6 km/h (1 Bft)
16.10.2018 06:17 9,1 C 84 % 1016,8 hPa 0,0 l/m 0,0 km/h (0 Bft) W-NW 285 6,5 C 9,1 C 0,0 km/h (0 Bft)
16.10.2018 06:16 9,1 C 84 % 1016,8 hPa 0,0 l/m 0,6 km/h (0 Bft) W-NW 285 6,5 C 9,1 C 1,6 km/h (1 Bft)
16.10.2018 06:15 9,1 C 83 % 1016,8 hPa 0,0 l/m 2,1 km/h (1 Bft) W-NW 285 6,4 C 9,1 C 3,2 km/h (1 Bft)
16.10.2018 06:13 9,1 C 83 % 1016,9 hPa 0,0 l/m 0,9 km/h (0 Bft) W-NW 285 6,4 C 9,1 C 3,2 km/h (1 Bft)
16.10.2018 06:12 9,1 C 83 % 1016,8 hPa 0,0 l/m 1,2 km/h (1 Bft) W-NW 285 6,4 C 9,1 C 3,2 km/h (1 Bft)
16.10.2018 06:11 9,1 C 83 % 1016,8 hPa 0,0 l/m 0,6 km/h (0 Bft) W-NW 285 6,4 C 9,1 C 1,6 km/h (1 Bft)
16.10.2018 06:10 9,1 C 83 % 1016,8 hPa 0,0 l/m 0,8 km/h (0 Bft) W-NW 285 6,4 C 9,1 C 1,6 km/h (1 Bft)
16.10.2018 06:09 9,1 C 83 % 1016,8 hPa 0,0 l/m 1,2 km/h (1 Bft) W-NW 285 6,4 C 9,1 C 3,2 km/h (1 Bft)
16.10.2018 06:08 9,0 C 83 % 1016,8 hPa 0,0 l/m 2,3 km/h (1 Bft) W-NW 285 6,3 C 9,0 C 3,2 km/h (1 Bft)
16.10.2018 06:07 9,0 C 83 % 1016,8 hPa 0,0 l/m 1,7 km/h (1 Bft) W-NW 285 6,3 C 9,0 C 3,2 km/h (1 Bft)
16.10.2018 06:06 9,0 C 83 % 1016,8 hPa 0,0 l/m 1,9 km/h (1 Bft) W-NW 285 6,3 C 9,0 C 3,2 km/h (1 Bft)
16.10.2018 06:05 8,9 C 83 % 1016,8 hPa 0,0 l/m 1,9 km/h (1 Bft) W-NW 285 6,2 C 8,9 C 3,2 km/h (1 Bft)
16.10.2018 06:04 9,0 C 83 % 1016,7 hPa 0,0 l/m 2,0 km/h (1 Bft) W-NW 285 6,3 C 9,0 C 3,2 km/h (1 Bft)
16.10.2018 06:03 8,9 C 83 % 1016,7 hPa 0,0 l/m 1,6 km/h (1 Bft) W-NW 285 6,2 C 8,9 C 3,2 km/h (1 Bft)
16.10.2018 06:02 8,9 C 83 % 1016,7 hPa 0,0 l/m 1,6 km/h (1 Bft) W-NW 285 6,2 C 8,9 C 3,2 km/h (1 Bft)
16.10.2018 06:00 9,0 C 82 % 1016,7 hPa 0,0 l/m 2,6 km/h (1 Bft) W-NW 285 6,1 C 9,0 C 3,2 km/h (1 Bft)
16.10.2018 05:59 9,0 C 82 % 1016,7 hPa 0,0 l/m 1,9 km/h (1 Bft) W-NW 285 6,1 C 9,0 C 3,2 km/h (1 Bft)
16.10.2018 05:58 9,0 C 82 % 1016,7 hPa 0,0 l/m 2,1 km/h (1 Bft) W-NW 285 6,1 C 9,0 C 3,2 km/h (1 Bft)
16.10.2018 05:57 9,1 C 82 % 1016,7 hPa 0,0 l/m 1,6 km/h (1 Bft) W-NW 284 6,2 C 9,1 C 3,2 km/h (1 Bft)
16.10.2018 05:56 9,1 C 82 % 1016,7 hPa 0,0 l/m 1,2 km/h (1 Bft) W-NW 284 6,2 C 9,1 C 3,2 km/h (1 Bft)
16.10.2018 05:55 9,1 C 82 % 1016,7 hPa 0,0 l/m 2,2 km/h (1 Bft) W-NW 284 6,2 C 9,1 C 4,8 km/h (1 Bft)
16.10.2018 05:53 9,2 C 82 % 1016,6 hPa 0,0 l/m 3,0 km/h (1 Bft) W-NW 284 6,3 C 9,2 C 3,2 km/h (1 Bft)
16.10.2018 05:52 9,2 C 82 % 1016,6 hPa 0,0 l/m 1,1 km/h (1 Bft) W-NW 284 6,3 C 9,2 C 3,2 km/h (1 Bft)
16.10.2018 05:51 9,2 C 82 % 1016,6 hPa 0,0 l/m 1,5 km/h (1 Bft) W-NW 285 6,3 C 9,2 C 3,2 km/h (1 Bft)
16.10.2018 05:50 9,2 C 82 % 1016,6 hPa 0,0 l/m 0,8 km/h (0 Bft) W-NW 285 6,3 C 9,2 C 1,6 km/h (1 Bft)
_ Min-Zeit 06:02 16:02 17:37 - 18:32 - - 08:00 06:02 18:32
Minimum _ 8,9 C 43 % 1014,0 hPa - 0,0 km/h (0 Bft) - - 5,8 C 8,9 C 0,0 km/h (0 Bft)
_ Max-Zeit 16:54 06:16 07:35 08:00 13:03 - - 15:00 16:54 11:26
Maximum _ 21,3 C 84 % 1017,4 hPa 0,0 l/m 24,1 km/h
S-SO (4 Bft)
- - 9,5 C 21,3 C 30,6 km/h
SO (5 Bft)
Durchschnitt _ 15,0 C 62 % 1015,2 hPa #0,0 l/m 4,9 km/h (1 Bft) S-SO - 7,3 C 15,0 C 7,4 km/h (2 Bft)
Wetterstation Eggerszell